Powrót do katalogu

USA 23

AktywnyNawigacjaLEO
NORAD 18009·PAYLOAD·🇺🇸 United States

Wystrzelony May 15, 1987 z Vandenberg Space Force Base

Loading…

Następne Przeloty (najbliższe 24 godziny)

TLE

ŚwieżeSource: Space-Track

Epoka: Sep 14, 2026, 14:25 UTC

1 18009U 87043E   26257.60108691  .00008323  00000-0  50517-3 0  9990
2 18009  63.2923 106.6476 0773363 107.0424 261.6779 13.88693329357906

Śledź USA 23 w czasie rzeczywistym z AllMySat

Download on the App Store